Regional Weather Roundup
Issued by NWS

Home | Current Version | Previous Version | Graphics & Text | Print | Product List | Glossary Off
Versions: 1 2 3 4 5 6 7 8 9 10 11 12 13 14 15 16 17 18 19 20 21 22 23 24 25 26 27 28 29 30 31 32 33 34 35 36 37 38 39 40 41 42 43 44 45 46 47 48 49 50

000
ASUS43 KFSD 242102
RWRSD

WEATHER ROUNDUP FOR SOUTH DAKOTA
NATIONAL WEATHER SERVICE SIOUX FALLS SD
400 PM CDT SUN JUL 24 2016

NOTE: "FAIR" INDICATES FEW OR NO CLOUDS BELOW 12,000 FEET WITH NO
SIGNIFICANT WEATHER AND/OR OBSTRUCTIONS TO VISIBILITY.


SDZ001>005-009-010-012>017-242200-
NORTHWEST AND NORTH CENTRAL SOUTH DAKOTA

CITY           SKY/WX    TMP DP  RH WIND       PRES   REMARKS
BUFFALO          N/A     88  43  20 S9        30.03F
FAITH            N/A     85  41  21 VRB3      30.09S
MOBRIDGE       SUNNY     87  49  26 NW13      30.03S
$$

SDZ012>016-024>037-041>051-057-063-072>074-242200-
SOUTHWEST AND SOUTH CENTRAL SOUTH DAKOTA

CITY           SKY/WX    TMP DP  RH WIND       PRES   REMARKS
RAPID CTY ARPT MOSUNNY   86  48  26 S8        30.11F
PIERRE         CLOUDY    82  52  35 W8        30.05R
CUSTER         MOSUNNY   78  42  27 SE8       30.26F
ELLSWORTH AFB  SUNNY     87  49  27 VRB2      30.10F
PHILIP         CLOUDY    86  53  32 CALM      30.07F
PINE RIDGE     PTSUNNY   84  47  27 E9        30.12F
WINNER         FAIR      86  52  30 CALM      30.10F
$$

SDZ004>011-016>023-039-040-242200-
NORTHEAST SOUTH DAKOTA

CITY           SKY/WX    TMP DP  RH WIND       PRES   REMARKS
ABERDEEN       SUNNY     84  55  36 NW15      30.01F
WATERTOWN      CLOUDY    83  58  42 W9        30.03F
BROOKINGS      PTSUNNY   78  61  55 W9        30.04F
SISSETON         N/A     81  58  45 N16       29.98R
$$

SDZ017-020-022-023-036>040-048>070-242200-
SOUTHEAST SOUTH DAKOTA

CITY           SKY/WX    TMP DP  RH WIND       PRES   REMARKS
SIOUX FALLS    PTSUNNY   79  66  64 NW9       30.04F
HURON          MOSUNNY   79  60  52 VRB7      30.04F
CHAMBERLAIN    SUNNY     83  55  39 CALM      30.07F
MITCHELL       CLOUDY    78  63  59 NW3       30.06F
YANKTON        PTSUNNY   77  61  57 NW5       30.04F
$$

ABBREVIATIONS USED IN REMARKS
   TC - TEMPERATURE IN CELSIUS
  WCI - WIND CHILL INDEX
   HX - HEAT INDEX
  VSB - VISIBILITY





USA.gov is the U.S. government's official web portal to all federal, state and local government web resources and services.